Regional Weather Roundup
Issued by NWS Upton, NY

Current Version | Previous Version | Text Only | Print | Product List | Glossary Off
Versions: 1 2 3 4 5 6 7 8 9 10 11 12 13 14 15 16 17 18 19 20 21 22 23 24 25 26 27 28 29 30 31 32 33 34 35 36 37 38 39 40 41 42 43 44 45 46 47 48 49 50
000 ASUS41 KOKX 191005 RWROKX REGIONAL WEATHER ROUNDUP NATIONAL WEATHER SERVICE NEW YORK NY 600 AM EDT FRI SEP 19 2014 NOTE: "FAIR" INDICATES FEW OR NO CLOUDS BELOW 12,000 FEET WITH NO SIGNIFICANT WEATHER AND/OR OBSTRUCTIONS TO VISIBILITY. NYZ071-072-176-178-NJZ106-104-191100- NEW YORK CITY METRO AREA CITY SKY/WX TMP DP RH WIND PRES REMARKS CENTRAL PARK MOCLDY 57 48 72 E10 30.26R LAGUARDIA APRT PTCLDY 57 50 77 NE15 30.23R KENNEDY INTL PTCLDY 58 48 69 NE15 30.23R NEWARK/LIBERTY MOCLDY 56 47 71 N14 30.23R BRNX BOT. GARD N/A 54 48 82 NE3 30.26R TETERBORO MOCLDY 55 46 71 N8 30.23R $$ NYZ177-179-078>081-191100- LONG ISLAND NEW YORK CITY SKY/WX TMP DP RH WIND PRES REMARKS FARMINGDALE CLEAR 56 47 71 NE10 30.23R ISLIP PTCLDY 55 47 74 NE10 30.22R SHIRLEY CLEAR 54 47 77 N6 30.24R WESTHAMPTON CLEAR 55 42 61 N12 30.24R MONTAUK POINT N/A 56 44 64 N9G18 30.24R $$ NYZ052-065-067-191100- HUDSON VALLEY CITY SKY/WX TMP DP RH WIND PRES REMARKS WHITE PLAINS PTCLDY 51 45 79 NE8 30.25R NEWBURGH MOCLDY 48 41 76 NE7 30.28R MONTGOMERY PTCLDY 45 41 86 N6 30.27R POUGHKEEPSIE PTCLDY 46 40 79 N7 30.28R ALBANY MOCLDY 42 35 76 N8 30.33R $$ NJZ001-105-106-008-010-013-015-019>022-104-191100- NEW JERSEY CITY SKY/WX TMP DP RH WIND PRES REMARKS NEWARK/LIBERTY MOCLDY 56 47 71 N14 30.23R TETERBORO MOCLDY 55 46 71 N8 30.23R CALDWELL PTCLDY 51 44 77 NE6 30.25R MORRISTOWN CLOUDY 52 46 82 CALM 30.24R SOMERVILLE MOCLDY 53 47 79 NW3 30.22R LINDEN CLOUDY 61 50 67 NE8 30.25R SUSSEX PTCLDY 50 42 74 NE6 30.27R ANDOVER N/A 48 45 89 VRB6 30.26R TRENTON CLEAR 54 48 80 N6 30.21R MILLVILLE PTCLDY 57 50 77 NE9 30.19R ATLANTIC CITY CLEAR 53 51 93 N7 30.18R WRIGHTSTOWN CLEAR 51 49 90 N5 30.19R TOMS RIVER CLEAR 50 48 93 CALM 30.21R BELMAR CLEAR 57 48 72 NE6 30.21R $$ PAZ047>061-062-071-191100- EASTERN PENNSYLVANIA CITY SKY/WX TMP DP RH WIND PRES REMARKS PHILADELPHIA PTCLDY 59 49 69 NE12 30.21R ALLENTOWN CLEAR 50 45 83 E6 30.24R SCRANTON CLEAR 45 42 89 CALM 30.27R $$ CTZ002-004>006-009-010-012-RIZ004-006-007-MAZ004-011-015-191100- SOUTHERN NEW ENGLAND IN CT CITY SKY/WX TMP DP RH WIND PRES REMARKS BRADLEY INTL CLEAR 45 38 76 N9 30.28R HARTFORD CLEAR 48 39 71 N9 30.28R DANBURY PTCLDY 50 36 58 NE8 30.27R WTRBRY/OXFORD CLEAR 46 34 61 NE14 30.26R BRIDGEPORT PTCLDY 53 39 59 NE12 30.26R MERIDEN PTCLDY 49 38 65 N8 30.27R NEW HAVEN PTCLDY 52 39 61 N14 30.25R CHESTER PTSUNNY 50 39 66 N8 30.25R GROTON PTCLDY 50 40 68 N9 30.24R WILLIMANTIC CLEAR 46 38 73 N7 30.27R IN RI CITY SKY/WX TMP DP RH WIND PRES REMARKS PROVIDENCE MOCLDY 50 38 63 N13 30.27R BLOCK ISLAND MOCLDY 55 43 62 NE13G25 30.23R WESTERLY MOCLDY 51 41 68 N7 30.25R IN MA CITY SKY/WX TMP DP RH WIND PRES REMARKS BOSTON PTCLDY 48 36 63 N12 30.28R WORCESTER CLEAR 42 34 73 N9 30.27R WESTFIELD CLEAR 43 38 82 N8 30.30R PROVINCETOWN PTCLDY 52 37 58 NE17G25 30.26R NANTUCKET CLEAR 56 45 66 N21 30.20R $$ ANZ330-335-338-340-345-350-353-355-191100- COASTAL MARINE OBSERVATIONS STATION/POSITION TIME SKY/WX TEMP WIND PRES VSBY WAVE AIR SEA DIR/SP/G HT/PER (UTC) (F) (DEG/KT/KT) (MB) (MI) (FT/S) NY HARB ENTRANCE 1000 62 70 40/ 19/ 23 1022.6 4/ 4 4S FIRE IS 1000 70 N/A 3/ 4 23SW MTP 1000 N/A 5/ 5 HUDSON CANYON 1000 68 72 30/ 12/ 16 1020.6 3/11 EXECUTION ROCKS 1000 58 70 40/ 17/ 21 N/A WESTERN LI SOUND 1000 56 40/ 14/ 17 N/A 2/ 3 CENTRAL LI SOUND 0900 56 70 50/ 16/ 17 N/A 3/ 4 EASTERN LI SOUND 0900 55 67 20/ 16/ 19 N/A ROBBINS REEF 1000 58 360/ 14/ 17 1022.1 $$ >>>>>>>>>>>>>>>>>>>>>>>>>>>> KEY <<<<<<<<<<<<<<<<<<<<<<<<<<< > < > SKY/WX - SKY CONDITION/PRESENT WEATHER < > TMP - TEMPERATURE IN FAHRENHEIT < > DP - DEWPOINT IN FAHRENHEIT < > RH - RELATIVE HUMIDITY IN PERCENT < > WIND - DIRECTION AND SPEED IN MPH < > PRES - MEAN SEA LEVEL PRESSURE IN INCHES OF HG < > WCI - WIND CHILL INDEX < > VSB - VISIBILITY IN MILES < > HX - HEAT INDEX < > TC - TEMPERATURE IN CELSIUS < > VRB - VARIABLE WIND DIRECTION < > < >>>>>>>>>>>>>>>>>>>>>>>>>>>> KEY <<<<<<<<<<<<<<<<<<<<<<<<<<<

USA.gov is the U.S. government's official web portal to all federal, state and local government web resources and services.